Погода в Сённерборге

Дания     54°54′50″N   9°47′47″E
темп.,
°C
ветер,
м/с
пор.,
м/с
влажн.,
%
обл.,
%
осадки,
мм/ч
давл.,
гПа
погр.,
м
20 июня, вс
вс2023:00+16зсз34965 0.0 101366
02:00+14ссв229711 0.0 101236
05:00+15всв359883 0.0 1010109
08:00+19вюв71491100 0.3 1007529
11:00+21ююв599182 1.1 1006564
14:00+22ююз9128413 2.1 1006982
17:00+19з911732 0.1 1008741
20:00+15з71081100 0.1 1009609
21 июня, пн
пн2123:00+12зсз5884100 0.0 1011363
02:00+11сз468769 0.0 1011165
05:00+10ссз358799 0.0 1010117
08:00+12ссз4783100 0.5 1010457
11:00+11ссз4694100 3.9 1011381
14:00+12ссз5788100 4.0 1011600
17:00+15сз577225 0.0 1012903
20:00+14сз79756 0.0 1013694
22 июня, вт
вт2223:00+11сз610835 0.0 1013430
02:00+11зсз611787 0.0 1013532
05:00+9зсз5118680 0.0 1013342
08:00+13зсз7117524 0.0 1014750
11:00+16зсз8971100 0.0 1014914
14:00+17зсз6773100 0.0 1015982
17:00+16зсз5678100 0.0 1015696
20:00+15зсз558487 0.0 1016459
23 июня, ср
ср2323:00+14зсз4690100 0.0 1017277
02:00+14ссз479099 0.1 1017279
05:00+14с5785100 0.0 1017280
08:00+14с5683100 0.0 1018338
11:00+17с3473100 0.0 1019656
14:00+17сз3372100 0.0 1019552
17:00+18сз2372100 0.1 1019697
20:00+15сз5885100 0.5 1018287
24 июня, чт
чт2423:00+13сз5793100 3.0 1020271
02:00+11сз4886100 3.3 1019249
05:00+11з4690100 0.2 1019184
08:00+13сз358798 0.2 1019380
11:00+16зсз457130 0.0 1019880
14:00+18зсз556624 0.0 10191208
17:00+17зсз56669 0.0 10191044
20:00+15з56745 0.0 1019658